ASTRA 5B (EGNOS/PRN 123)

Last updated on Sept. 19, 2020, 5:47 a.m. UTC

1 39617U 14011B   20262.27688303  .00000140  00000-0  00000-0 0  9997
2 39617   0.0748  80.4526 0002279  93.8768 314.4534  1.00270318 23633
UTC
Height (km)
Latitude
Longitude
Inclination
Orbital Period
UTC large
Height (km)
Speed (km/s)
/
Latitude / Longitude
Inclination (degrees)
Orbital Period (minutes)
Azimuth
Elevation
Range (km)
Doppler Factor
iOS Compass Heading
iOS Angle

Next 30 passes for location: Hong Kong

Rise time Rise Azimuth (degrees) Set time Set Azimuth (degrees) Duration Max altitude (degrees)

No matching passes for this satellites